Zurück zum Katalog

STARLINK-37303

AktivKommunikationVLEO
NORAD 68709·PAYLOAD·🇺🇸 United States

Gestartet Apr 14, 2026 von Cape Canaveral Space Force Station

Loading…

Nächste Überflüge (nächste 24 Stunden)

TLE

AktuellSource: CelesTrak SupGP

Epoche: Sep 14, 2026, 23:05 UTC

1 68709C 26081L   26257.96229167  .00014812  00000+0  43751-3 0  2576
2 68709  53.1580 231.7217 0001358  96.1884  14.8233 15.34391466    14

Verfolge STARLINK-37303 in Echtzeit mit AllMySat

Download on the App Store